Weather in Vyshka

Russia / Astrakhan Oblast     45°36′37″N   47°38′36″E
temp.,
°C
wind,
m/s
gust,
m/s
humid.,
%
clouds,
%
prec.,
mm/h
press.,
hPa
HPBL,
m
1 august, sun
sun101:00+27sse456692 0.0 1011317
04:00+27se346420 0.0 1011386
07:00+27se23615 0.0 1011261
10:00+26ese33632 0.3 1012156
13:00+27ese33582 0.4 1012271
16:00+28ese45590 0.4 1011259
19:00+28se45610 0.0 1011145
22:00+28se45620 0.0 1011111
2 august, mon
mon201:00+28se336191 0.0 101162
04:00+28ese33639 0.0 101190
07:00+28e446584 0.0 1011123
10:00+28ese4567100 0.0 1012128
13:00+29ese3362100 0.0 101283
16:00+30e445421 0.0 101171
19:00+29ese456715 0.0 101178
22:00+28se456563 0.0 101190
3 august, tue
tue301:00+28se33652 0.0 101051
04:00+28ese22635 0.0 101012
07:00+28ene00644 0.0 101111
10:00+29e34550 0.0 101267
13:00+29sse33570 0.0 101178
16:00+30ese33510 0.0 101045
19:00+30ese44550 0.0 101042
22:00+28se45690 0.0 101160
4 august, wed
wed401:00+27s45750 0.0 101078
04:00+28sw33680 0.0 101052
07:00+28ssw22650 0.0 101135
10:00+28s33620 0.0 1012102
13:00+29sse44590 0.0 1011104
16:00+29sse45580 0.0 101093
19:00+29sse68605 0.0 1010103
22:00+28s58700 0.0 1011102
5 august, thu
thu501:00+28wnw2261100 0.0 101121
04:00+29e2257100 0.0 101012
07:00+28nne4556100 0.0 1011108
10:00+30n71054100 0.0 1012181
13:00+30nnw111352100 0.0 1012242
16:00+30nne811535 0.0 1012195
19:00+30n45540 0.0 101284
22:00+30n44536 0.0 101334